Regional Weather Roundup
Issued by NWS

Home | Current Version | Previous Version | Text Only | Print | Product List | Glossary On
Versions: 1 2 3 4 5 6 7 8 9 10 11 12 13 14 15 16 17 18 19 20 21 22 23 24 25 26 27 28 29 30 31 32 33 34 35 36 37 38 39 40 41 42 43 44 45 46 47 48 49 50
000
ASUS43 KTOP 180059
RWRKS

WEATHER ROUNDUP FOR KANSAS
NATIONAL WEATHER SERVICE GOODLAND KS
700 PM CST TUE JAN 17 2017

NOTE:  "FAIR" INDICATES FEW OR NO CLOUDS BELOW 12,000 FEET WITH NO
SIGNIFICANT WEATHER AND/OR OBSTRUCTIONS TO VISIBILITY.

KSZ001>006-013>018-027>032-041>047-180200-
NORTHWEST KANSAS

CITY           SKY/WX    TMP DP  RH WIND       PRES   REMARKS
GOODLAND       CLEAR     34  31  88 SW5       30.02F
HAYS           CLEAR     36  30  79 S5        30.09R
HILL CITY      CLEAR     30  26  85 CALM      30.06F
RUSSELL        CLEAR     35  30  82 S5        30.07F
$$

KSZ061>065-074>080-084>089-180200-
SOUTHWEST KANSAS

CITY           SKY/WX    TMP DP  RH WIND       PRES   REMARKS
DODGE CITY     CLEAR     35  29  78 SE7       30.11R
ELKHART          N/A     35  25  67 SE7         N/A
GARDEN CITY    CLEAR     35  29  78 SE8       30.09R
GREAT BEND     CLEAR     33  30  88 S6        30.11R
LIBERAL        CLOUDY    41  28  60 SE8       30.10R
$$

KSZ066>073-081>083-090>101-180200-
SOUTHEAST KANSAS

CITY           SKY/WX    TMP DP  RH WIND       PRES   REMARKS
CHANUTE        CLEAR     38  34  85 S10       30.18R WCI  31
COFFEYVILLE    CLEAR     38  34  85 E3        30.18S
HUTCHINSON     CLEAR     33  28  81 CALM      30.13R
MEDICINE LODGE   N/A     43  32  65 E7        30.12S
NEWTON         CLEAR     39  33  79 CALM      30.14R
PARSONS        CLEAR     37  34  89 CALM      30.19R
WICHITA INTL   CLEAR     37  31  78 S5        30.15R
WICHITA JABRA  CLEAR     42  31  64 CALM      30.14R
WINFIELD       CLOUDY    41  32  70 CALM      30.15F
$$

KSZ007>012-019>026-033>040-048>060-102>105-180200-
NORTHEAST KANSAS

CITY           SKY/WX    TMP DP  RH WIND       PRES   REMARKS
CONCORDIA      CLEAR     32  29  88 S6        30.09S
EMPORIA        CLEAR     39  30  70 SW5       30.13R
LAWRENCE       CLEAR     31  30  96 CALM      30.15R
MANHATTAN      CLEAR     31  26  82 CALM      30.13R
OLATHE IND     CLEAR     36  33  89 E5        30.15R
OLATHE EXE     CLEAR     32  32 100 CALM      30.15R
SALINA         CLEAR     39  32  76 NW3       30.11S
TOPEKA BILLARD CLEAR     35  30  82 CALM      30.14R
TOPEKA FORBES  CLEAR     37  30  75 CALM      30.14R
$$




USA.gov is the U.S. government's official web portal to all federal, state and local government web resources and services.